GW5795 Weather Reports


time (UTC)temp
C
wind
direction
speed
KPH
gust
KPH
rain 1hr
cm
rain 24hr
cm
rain mn
cm
humidity
%
barometer
mb
20260504160135 19 332 22.5 27.4 0.00 0.00 0.00 48 1006.1
20260504151102 20 322 11.3 25.7 0.00 0.00 0.00 45 1005.5
20260504150600 20 327 14.5 24.1 0.00 0.00 0.00 44 1005.4
20260504141026 18 189 3.2 4.8 0.00 0.00 0.00 46 1004.3
20260504140522 18 183 1.6 11.3 0.00 0.00 0.00 49 1004.2
20260504130447 15 192 1.6 3.2 0.00 0.00 0.00 53 1004.6
20260504110334 8 195 4.8 4.8 0.00 0.00 0.00 70 1004.8
20260504100251 7 185 0.0 0.0 0.00 0.00 0.00 77 1005.5
20260504081645 8 189 0.0 0.0 0.00 0.00 0.00 73 1005.7
20260504081141 8 188 0.0 0.0 0.00 0.00 0.00 74 1005.8
20260504080637 8 188 0.0 0.0 0.00 0.00 0.00 74 1005.8
20260504080134 8 188 0.0 0.0 0.00 0.00 0.00 74 1006.0
20260504050450 12 185 0.0 0.0 0.00 0.00 0.00 60 1008.3
20260504045947 12 185 0.0 0.0 0.00 0.00 0.00 60 1008.3
20260504045443 12 184 0.0 0.0 0.00 0.00 0.00 59 1008.5
20260504044939 12 184 0.0 0.0 0.00 0.00 0.00 59 1008.6
20260504044437 12 184 0.0 0.0 0.00 0.00 0.00 59 1008.7
20260504043934 12 184 0.0 0.0 0.00 0.00 0.00 59 1008.6
20260504043431 12 185 0.0 0.0 0.00 0.00 0.00 58 1008.6
20260504042929 12 185 0.0 0.0 0.00 0.00 0.00 57 1008.6
20260504042425 13 185 0.0 0.0 0.00 0.00 0.00 57 1008.8
20260504041921 13 185 0.0 0.0 0.00 0.00 0.00 57 1008.9
20260504041418 13 185 0.0 0.0 0.00 0.00 0.00 56 1009.1
20260504040914 13 185 0.0 0.0 0.00 0.00 0.00 56 1009.1
20260504040412 13 184 0.0 0.0 0.00 0.00 0.00 55 1009.1
20260504035908 13 184 0.0 0.0 0.00 0.00 0.00 53 1009.1
20260504035405 15 184 0.0 0.0 0.00 0.00 0.00 52 1009.2
20260504034902 15 187 0.0 1.6 0.00 0.00 0.00 50 1009.2
20260504034359 15 187 1.6 3.2 0.00 0.00 0.00 50 1009.2
20260504033856 15 180 3.2 4.8 0.00 0.00 0.00 50 1009.1
20260504033354 14 185 1.6 1.6 0.00 0.00 0.00 51 1009.2
20260504032850 14 188 0.0 0.0 0.00 0.00 0.00 51 1009.1
20260504032347 14 189 0.0 0.0 0.00 0.00 0.00 52 1009.1
20260504031844 14 189 0.0 0.0 0.00 0.00 0.00 51 1009.2
20260504031341 15 189 0.0 0.0 0.00 0.00 0.00 51 1009.2
20260504030837 15 185 0.0 0.0 0.00 0.00 0.00 48 1009.3
20260504030335 15 183 0.0 0.0 0.00 0.00 0.00 48 1009.2
20260504025831 15 182 0.0 0.0 0.00 0.00 0.00 48 1009.3
20260504025328 15 192 0.0 0.0 0.00 0.00 0.00 46 1009.3
20260504024825 15 192 0.0 0.0 0.00 0.00 0.00 46 1009.3
20260504024321 15 192 0.0 0.0 0.00 0.00 0.00 46 1009.3
20260504023818 15 192 0.0 0.0 0.00 0.00 0.00 46 1009.3
20260504023315 16 192 0.0 0.0 0.00 0.00 0.00 46 1009.4
20260504022810 16 192 0.0 0.0 0.00 0.00 0.00 44 1009.4
20260504022308 16 192 0.0 0.0 0.00 0.00 0.00 45 1009.7
20260504021804 16 192 0.0 0.0 0.00 0.00 0.00 47 1009.4
20260504021302 16 192 0.0 0.0 0.00 0.00 0.00 45 1009.4
20260504020758 16 192 0.0 0.0 0.00 0.00 0.00 44 1009.6
20260504020255 17 192 0.0 0.0 0.00 0.00 0.00 44 1009.4
20260504015751 17 192 0.0 0.0 0.00 0.00 0.00 42 1009.7
20260504015248 17 192 0.0 0.0 0.00 0.00 0.00 42 1009.8
20260504014743 17 192 0.0 0.0 0.00 0.00 0.00 41 1009.8
20260504014240 18 192 0.0 0.0 0.00 0.00 0.00 38 1009.9
20260504013738 18 189 0.0 0.0 0.00 0.00 0.00 37 1009.9
20260504013235 18 190 0.0 0.0 0.00 0.00 0.00 37 1009.9
20260504012731 18 188 0.0 0.0 0.00 0.00 0.00 36 1009.9
20260504012230 18 192 0.0 3.2 0.00 0.00 0.00 36 1009.9
20260504011726 19 190 0.0 1.6 0.00 0.00 0.00 36 1010.1
20260504011223 20 185 0.0 1.6 0.00 0.00 0.00 35 1010.1
20260504010719 20 190 0.0 1.6 0.00 0.00 0.00 34 1010.2
20260504010215 20 188 0.0 1.6 0.00 0.00 0.00 33 1010.2
20260504005711 21 214 3.2 4.8 0.00 0.00 0.00 33 1010.2
20260504005209 21 183 1.6 3.2 0.00 0.00 0.00 32 1010.3
20260504004707 21 185 1.6 3.2 0.00 0.00 0.00 32 1010.5
20260504004203 21 204 1.6 6.4 0.00 0.00 0.00 32 1010.5
20260504003700 21 187 0.0 6.4 0.00 0.00 0.00 32 1010.5
20260504003157 22 252 4.8 9.7 0.00 0.00 0.00 30 1010.4
20260504002653 22 187 1.6 4.8 0.00 0.00 0.00 31 1010.4
20260504002151 22 203 3.2 6.4 0.00 0.00 0.00 31 1010.7
20260504001649 22 205 1.6 3.2 0.00 0.00 0.00 32 1010.7
20260504001144 22 187 3.2 9.7 0.00 0.00 0.00 32 1010.8
20260504000642 22 186 1.6 6.4 0.00 0.00 0.00 32 1010.7
20260504000139 22 222 3.2 9.7 0.00 0.00 0.00 32 1010.7
20260503235637 22 202 3.2 4.8 0.00 0.00 0.00 32 1010.8
20260503235133 22 176 3.2 4.8 0.00 0.00 0.00 33 1010.8
20260503234632 22 190 1.6 6.4 0.00 0.00 0.00 33 1010.9
20260503234129 22 268 3.2 6.4 0.00 0.00 0.00 33 1010.9
20260503233626 22 238 1.6 6.4 0.00 0.00 0.00 34 1011.0
20260503233122 22 197 1.6 6.4 0.00 0.00 0.00 34 1010.9
20260503232619 22 195 1.6 6.4 0.00 0.00 0.00 33 1011.0
20260503232116 22 189 3.2 4.8 0.00 0.00 0.00 30 1010.9
20260503231614 23 186 1.6 6.4 0.00 0.00 0.00 31 1011.0
20260503231110 23 185 3.2 9.7 0.00 0.00 0.00 30 1011.1
20260503230608 23 212 3.2 6.4 0.00 0.00 0.00 29 1011.1
20260503230104 23 233 1.6 4.8 0.00 0.00 0.00 34 1011.1
20260503225602 23 224 1.6 4.8 0.00 0.00 0.00 34 1011.1
20260503225056 23 201 1.6 4.8 0.00 0.00 0.00 30 1011.1
20260503224554 23 186 3.2 9.7 0.00 0.00 0.00 31 1011.2
20260503224052 23 301 8.0 11.3 0.00 0.00 0.00 30 1011.3
20260503223550 23 176 4.8 11.3 0.00 0.00 0.00 30 1011.4
20260503223045 22 195 1.6 1.6 0.00 0.00 0.00 33 1011.3
20260503222543 22 238 3.2 11.3 0.00 0.00 0.00 34 1011.3
20260503222041 23 260 4.8 12.9 0.00 0.00 0.00 32 1011.4
20260503221539 22 312 4.8 9.7 0.00 0.00 0.00 33 1011.4
20260503221036 22 299 8.0 17.7 0.00 0.00 0.00 31 1011.4
20260503220532 23 346 4.8 12.9 0.00 0.00 0.00 33 1011.5
20260503220029 24 193 3.2 6.4 0.00 0.00 0.00 31 1011.6
20260503215526 22 189 0.0 1.6 0.00 0.00 0.00 35 1011.8
20260503215023 23 178 0.0 3.2 0.00 0.00 0.00 30 1011.8
20260503214522 23 211 3.2 4.8 0.00 0.00 0.00 34 1012.0
20260503214018 22 279 4.8 12.9 0.00 0.00 0.00 34 1012.0
20260503213516 23 171 4.8 6.4 0.00 0.00 0.00 34 1011.9
20260503213013 23 326 3.2 4.8 0.00 0.00 0.00 36 1012.0
20260503212510 23 282 3.2 11.3 0.00 0.00 0.00 33 1012.2
20260503212008 23 282 3.2 6.4 0.00 0.00 0.00 31 1012.3
20260503211504 23 198 3.2 4.8 0.00 0.00 0.00 30 1012.3
20260503211000 23 192 0.0 6.4 0.00 0.00 0.00 32 1012.6
20260503210457 22 202 3.2 4.8 0.00 0.00 0.00 36 1012.5
20260503205957 22 301 9.7 14.5 0.00 0.00 0.00 33 1012.6
20260503205454 22 211 3.2 11.3 0.00 0.00 0.00 33 1012.6
20260503204950 22 324 9.7 14.5 0.00 0.00 0.00 34 1012.7
20260503204448 22 200 1.6 4.8 0.00 0.00 0.00 34 1012.9
20260503203944 22 273 6.4 9.7 0.00 0.00 0.00 35 1012.8
20260503203442 22 190 3.2 14.5 0.00 0.00 0.00 37 1012.8
20260503202939 21 18 9.7 16.1 0.00 0.00 0.00 35 1013.0
20260503202437 22 314 9.7 14.5 0.00 0.00 0.00 33 1013.1
20260503201936 22 326 9.7 16.1 0.00 0.00 0.00 34 1013.0
20260503201432 22 16 9.7 17.7 0.00 0.00 0.00 34 1012.9
20260503200930 22 298 4.8 14.5 0.00 0.00 0.00 34 1013.2
20260503200426 21 338 3.2 4.8 0.00 0.00 0.00 42 1013.1
20260503195922 21 341 4.8 6.4 0.00 0.00 0.00 34 1013.2
20260503195420 22 21 9.7 9.7 0.00 0.00 0.00 31 1013.1
20260503194916 22 243 4.8 6.4 0.00 0.00 0.00 37 1013.3
20260503194413 22 352 9.7 17.7 0.00 0.00 0.00 33 1013.2
20260503193909 22 298 9.7 14.5 0.00 0.00 0.00 35 1013.3
20260503193404 22 284 4.8 12.9 0.00 0.00 0.00 35 1013.5
20260503192900 21 9 11.3 14.5 0.00 0.00 0.00 34 1013.5
20260503192356 21 3 6.4 20.9 0.00 0.00 0.00 33 1013.5
20260503191853 21 343 9.7 20.9 0.00 0.00 0.00 39 1013.7
20260503191350 21 302 9.7 14.5 0.00 0.00 0.00 35 1013.6
20260503190846 22 314 14.5 25.7 0.00 0.00 0.00 33 1014.0
20260503190344 21 202 3.2 4.8 0.00 0.00 0.00 39 1013.6
20260503185841 21 348 8.0 16.1 0.00 0.00 0.00 36 1013.7
20260503185337 22 304 6.4 12.9 0.00 0.00 0.00 37 1013.8
20260503184836 22 276 4.8 12.9 0.00 0.00 0.00 37 1014.0
20260503184333 21 321 4.8 12.9 0.00 0.00 0.00 35 1014.1
20260503183829 21 311 11.3 12.9 0.00 0.00 0.00 37 1014.2
20260503183326 21 212 8.0 20.9 0.00 0.00 0.00 38 1014.2
20260503182823 21 313 4.8 14.5 0.00 0.00 0.00 36 1014.1
20260503182323 21 340 4.8 12.9 0.00 0.00 0.00 34 1014.0
20260503181819 21 1 9.7 20.9 0.00 0.00 0.00 33 1014.4
20260503181316 21 276 4.8 9.7 0.00 0.00 0.00 37 1014.3
20260503180813 21 325 14.5 20.9 0.00 0.00 0.00 36 1014.4
20260503180311 21 342 14.5 16.1 0.00 0.00 0.00 35 1014.6
20260503175807 21 344 8.0 14.5 0.00 0.00 0.00 34 1014.6
20260503175305 21 187 3.2 4.8 0.00 0.00 0.00 44 1014.5
20260503174806 21 14 6.4 11.3 0.00 0.00 0.00 38 1014.9
20260503174304 21 290 6.4 11.3 0.00 0.00 0.00 37 1014.8
20260503173759 20 184 3.2 11.3 0.00 0.00 0.00 36 1014.8
20260503173255 20 301 14.5 17.7 0.00 0.00 0.00 36 1014.9
20260503172752 20 296 11.3 12.9 0.00 0.00 0.00 39 1015.0
20260503172250 20 347 19.3 20.9 0.00 0.00 0.00 36 1015.1
20260503171746 20 171 8.0 12.9 0.00 0.00 0.00 44 1014.9
20260503171243 20 323 4.8 11.3 0.00 0.00 0.00 40 1015.0
20260503170740 20 174 8.0 17.7 0.00 0.00 0.00 41 1015.2
20260503170237 19 359 8.0 17.7 0.00 0.00 0.00 39 1015.0